• In Netherlands
  • List of Countries
  • For 7 days
  • Water Temperature
  • Satellite Maps
  • Weather Map
  • Weather Widgets
  • user-avatar
    Login

    Hourly Weather Blagoevgrad

    Today, 23 February, Thursday

    Time Temperature Precipitation Wind Pressure Humidity
    00:00 +5°C° 0 mm 1 mps 719 mmHg 82%
    01:00 +5°C° 0 mm 1 mps 719 mmHg 82%
    02:00 +5°C° 0 mm 1 mps 719 mmHg 82%
    03:00 +4°C° 0 mm 1 mps 719 mmHg 84%
    04:00 +4°C° 0 mm 1 mps 719 mmHg 85%
    05:00 +4°C° 0 mm 1 mps 719 mmHg 86%
    06:00 +4°C° 0 mm 1 mps 719 mmHg 86%
    07:00 +5°C° 0 mm 1 mps 719 mmHg 85%
    08:00 +5°C° 0 mm 1 mps 719 mmHg 85%
    09:00 +8°C° 0 mm 1 mps 720 mmHg 78%
    10:00 +10°C° 0 mm 1 mps 720 mmHg 71%
    11:00 +13°C° 0 mm 1 mps 720 mmHg 64%
    12:00 +14°C° 0 mm 1 mps 720 mmHg 62%
    13:00 +14°C° 0 mm 1 mps 719 mmHg 60%
    14:00 +15°C° 0 mm 1 mps 719 mmHg 58%
    15:00 +14°C° 0 mm 1 mps 719 mmHg 61%
    16:00 +14°C° 0 mm 1 mps 719 mmHg 65%
    17:00 +13°C° 0 mm 1 mps 719 mmHg 68%
    18:00 +11°C° 0 mm 1 mps 719 mmHg 71%
    19:00 +9°C° 0 mm 1 mps 719 mmHg 74%
    20:00 +7°C° 0 mm 1 mps 719 mmHg 77%
    21:00 +7°C° 0 mm 1 mps 719 mmHg 79%
    22:00 +7°C° 0 mm 1 mps 719 mmHg 80%
    23:00 +5°C° 0 mm 2 mps 719 mmHg 82%

    Tomorrow, 24 February, Friday

    Time Temperature Precipitation Wind Pressure Humidity
    00:00 +5°C° 0 mm 2 mps 719 mmHg 83%
    01:00 +5°C° 0 mm 2 mps 718 mmHg 84%
    02:00 +4°C° 0 mm 2 mps 718 mmHg 86%
    03:00 +4°C° 0 mm 2 mps 718 mmHg 87%
    04:00 +4°C° 0 mm 2 mps 718 mmHg 88%
    05:00 +4°C° 0 mm 2 mps 717 mmHg 89%
    06:00 +5°C° 0 mm 1 mps 718 mmHg 89%
    07:00 +6°C° 0 mm 1 mps 718 mmHg 88%
    08:00 +6°C° 0 mm 1 mps 718 mmHg 88%
    09:00 +7°C° 0 mm 2 mps 718 mmHg 80%
    10:00 +10°C° 0 mm 2 mps 718 mmHg 73%
    11:00 +13°C° 0 mm 2 mps 719 mmHg 65%
    12:00 +14°C° 0 mm 2 mps 718 mmHg 62%
    13:00 +15°C° 0 mm 2 mps 718 mmHg 58%
    14:00 +15°C° 0 mm 2 mps 718 mmHg 55%
    15:00 +15°C° 0 mm 2 mps 717 mmHg 58%
    16:00 +14°C° 0 mm 2 mps 717 mmHg 62%
    17:00 +13°C° 0 mm 2 mps 717 mmHg 66%
    18:00 +12°C° 0 mm 2 mps 717 mmHg 70%
    19:00 +9°C° 0 mm 2 mps 717 mmHg 74%
    20:00 +8°C° 0 mm 2 mps 717 mmHg 78%
    21:00 +7°C° 0 mm 2 mps 717 mmHg 80%
    22:00 +7°C° 0 mm 2 mps 717 mmHg 81%
    23:00 +7°C° 0 mm 2 mps 717 mmHg 82%

    Day after tomorrow, 25 February, Saturday

    Time Temperature Precipitation Wind Pressure Humidity
    00:00 +7°C° 0.1 mm 2 mps 717 mmHg 84%
    01:00 +7°C° 0.1 mm 2 mps 717 mmHg 85%
    02:00 +7°C° 0.1 mm 2 mps 716 mmHg 86%
    03:00 +7°C° 0 mm 2 mps 716 mmHg 87%
    04:00 +7°C° 0 mm 2 mps 716 mmHg 88%
    05:00 +7°C° 0 mm 2 mps 716 mmHg 88%
    06:00 +7°C° 0.3 mm 2 mps 717 mmHg 88%
    07:00 +7°C° 0.3 mm 2 mps 717 mmHg 88%
    08:00 +8°C° 0.3 mm 2 mps 717 mmHg 88%
    09:00 +9°C° 0.6 mm 2 mps 718 mmHg 86%
    10:00 +10°C° 0.6 mm 2 mps 718 mmHg 85%
    11:00 +10°C° 0.6 mm 2 mps 719 mmHg 83%
    12:00 +10°C° 0.6 mm 2 mps 719 mmHg 84%
    13:00 +10°C° 0.6 mm 2 mps 719 mmHg 84%
    14:00 +10°C° 0.6 mm 2 mps 720 mmHg 84%
    15:00 +9°C° 0.5 mm 2 mps 720 mmHg 86%
    16:00 +8°C° 0.5 mm 2 mps 720 mmHg 88%
    17:00 +7°C° 0.5 mm 2 mps 720 mmHg 90%
    18:00 +7°C° 0.4 mm 2 mps 721 mmHg 90%
    19:00 +6°C° 0.4 mm 2 mps 721 mmHg 91%
    20:00 +6°C° 0.4 mm 2 mps 722 mmHg 91%
    21:00 +6°C° 0.2 mm 2 mps 722 mmHg 92%
    22:00 +5°C° 0.2 mm 2 mps 723 mmHg 92%
    23:00 +5°C° 0.2 mm 2 mps 723 mmHg 92%

    26 February, Sunday

    Time Temperature Precipitation Wind Pressure Humidity
    00:00 +5°C° 0.3 mm 2 mps 723 mmHg 92%
    01:00 +5°C° 0.3 mm 2 mps 724 mmHg 92%
    02:00 +5°C° 0.3 mm 2 mps 724 mmHg 92%
    03:00 +5°C° 0.1 mm 2 mps 724 mmHg 92%
    04:00 +4°C° 0.1 mm 2 mps 724 mmHg 92%
    05:00 +4°C° 0.1 mm 2 mps 724 mmHg 92%
    06:00 +4°C° 0.1 mm 2 mps 724 mmHg 91%
    07:00 +6°C° 0.1 mm 1 mps 725 mmHg 91%
    08:00 +6°C° 0.1 mm 1 mps 725 mmHg 90%
    09:00 +7°C° 0 mm 1 mps 725 mmHg 87%
    10:00 +8°C° 0 mm 1 mps 725 mmHg 84%
    11:00 +10°C° 0 mm 1 mps 726 mmHg 80%
    12:00 +10°C° 0 mm 1 mps 725 mmHg 81%
    13:00 +10°C° 0 mm 1 mps 724 mmHg 81%
    14:00 +11°C° 0 mm 1 mps 724 mmHg 81%
    15:00 +11°C° 0 mm 1 mps 724 mmHg 83%
    16:00 +10°C° 0 mm 1 mps 723 mmHg 84%
    17:00 +10°C° 0 mm 1 mps 723 mmHg 85%
    18:00 +9°C° 0 mm 1 mps 723 mmHg 88%
    19:00 +8°C° 0 mm 1 mps 723 mmHg 92%
    20:00 +7°C° 0 mm 1 mps 723 mmHg 96%
    21:00 +6°C° 0 mm 1 mps 723 mmHg 96%
    22:00 +6°C° 0 mm 1 mps 723 mmHg 96%
    23:00 +5°C° 0 mm 1 mps 722 mmHg 97%

    27 February, Monday

    Time Temperature Precipitation Wind Pressure Humidity
    00:00 +5°C° 0 mm 1 mps 722 mmHg 97%
    01:00 +5°C° 0 mm 1 mps 722 mmHg 97%
    02:00 +5°C° 0 mm 1 mps 722 mmHg 96%
    03:00 +5°C° 0 mm 1 mps 721 mmHg 96%
    04:00 +4°C° 0 mm 1 mps 721 mmHg 96%
    05:00 +4°C° 0 mm 1 mps 721 mmHg 96%
    06:00 +5°C° 0 mm 1 mps 721 mmHg 95%
    07:00 +4°C° 0 mm 0 mps 721 mmHg 95%
    08:00 +5°C° 0 mm 0 mps 721 mmHg 94%
    09:00 +7°C° 0 mm 0 mps 721 mmHg 87%
    10:00 +10°C° 0 mm 1 mps 721 mmHg 80%
    11:00 +13°C° 0 mm 1 mps 722 mmHg 73%
    12:00 +13°C° 0 mm 1 mps 721 mmHg 72%
    13:00 +14°C° 0 mm 1 mps 721 mmHg 70%
    14:00 +14°C° 0 mm 1 mps 720 mmHg 68%
    15:00 +14°C° 0 mm 1 mps 720 mmHg 71%
    16:00 +13°C° 0 mm 1 mps 720 mmHg 74%
    17:00 +11°C° 0 mm 0 mps 720 mmHg 77%
    18:00 +10°C° 0 mm 0 mps 720 mmHg 82%
    19:00 +8°C° 0 mm 0 mps 720 mmHg 88%
    20:00 +6°C° 0 mm 0 mps 720 mmHg 93%
    21:00 +6°C° 0 mm 0 mps 720 mmHg 93%
    22:00 +5°C° 0 mm 0 mps 720 mmHg 94%
    23:00 +6°C° 0 mm 1 mps 720 mmHg 94%

    28 February, Tuesday

    Time Temperature Precipitation Wind Pressure Humidity
    00:00 +6°C° 0 mm 1 mps 720 mmHg 94%
    01:00 +5°C° 0 mm 1 mps 720 mmHg 95%
    02:00 +5°C° 0 mm 1 mps 720 mmHg 95%
    03:00 +5°C° 0 mm 1 mps 720 mmHg 95%
    04:00 +5°C° 0 mm 1 mps 720 mmHg 95%
    05:00 +5°C° 0 mm 1 mps 720 mmHg 95%
    06:00 +6°C° 0 mm 1 mps 720 mmHg 94%
    07:00 +6°C° 0 mm 1 mps 721 mmHg 93%
    08:00 +7°C° 0 mm 1 mps 721 mmHg 92%
    09:00 +9°C° 0 mm 1 mps 721 mmHg 85%
    10:00 +11°C° 0 mm 1 mps 721 mmHg 79%
    11:00 +13°C° 0 mm 2 mps 721 mmHg 72%
    12:00 +13°C° 0 mm 2 mps 721 mmHg 70%
    13:00 +14°C° 0 mm 2 mps 721 mmHg 69%
    14:00 +14°C° 0 mm 2 mps 720 mmHg 67%
    15:00 +14°C° 0 mm 2 mps 720 mmHg 70%
    16:00 +13°C° 0 mm 1 mps 720 mmHg 73%
    17:00 +13°C° 0 mm 1 mps 720 mmHg 76%
    18:00 +11°C° 0 mm 1 mps 720 mmHg 81%
    19:00 +9°C° 0 mm 1 mps 720 mmHg 87%
    20:00 +8°C° 0 mm 1 mps 720 mmHg 93%
    21:00 +8°C° 0 mm 1 mps 720 mmHg 93%
    22:00 +7°C° 0 mm 1 mps 720 mmHg 94%
    23:00 +7°C° 0 mm 1 mps 720 mmHg 94%
    Show more